{"data":{"norad_id":43913,"epoch":"2026-05-25T03:27:49.858848Z","epoch_age_seconds":70048,"freshness":"FRESH","line1":"1 43913U 18112E   26145.14432707  .00000051  00000+0  83344-4 0  9990","line2":"2 43913  50.0071 264.5611 0005052 281.6723  78.3625 14.29000827385865","mean_motion":14.29000827,"eccentricity":0.0005052,"inclination_deg":50.0071,"raan_deg":264.5611,"arg_perigee_deg":281.6723,"mean_anomaly_deg":78.3625,"bstar":8.3344e-5,"rev_number":38586,"period_min":100.76971075119,"perigee_km":791.44869786671,"apogee_km":798.69650884994,"semimajor_km":7173.2096033583,"source":"CELESTRAK","updated_at":"2026-05-25T13:37:55.928790Z"}}